Date,TemperatureHighF,TemperatureAvgF,TemperatureLowF,DewpointHighF,DewpointAvgF,DewpointLowF,HumidityHigh,HumidityAvg,HumidityLow,PressureMaxIn,PressureMinIn,WindSpeedMaxMPH,WindSpeedAvgMPH,GustSpeedMaxMPH,PrecipitationSumIn
2014-1-1,34.5,26.9,20.5,10.7,4.1,-2.9,45,37,30,0.00,0.00,6,2,10,0.00
2014-1-2,29.7,24.1,13.8,13.8,9.7,1.0,64,54,44,0.00,0.00,9,5,13,0.00
2014-1-3,24.8,13.8,7.7,0.9,-6.5,-17.9,56,41,22,0.00,0.00,12,5,20,0.00
2014-1-4,29.8,16.1,3.0,3.0,-10.7,-22.0,45,29,20,0.00,0.00,8,2,12,0.00
2014-1-5,35.8,25.5,12.7,33.7,14.0,0.0,92,62,42,0.00,0.00,4,0,7,0.00
2014-1-6,55.9,40.7,16.9,55.4,29.1,-6.6,98,67,31,0.00,0.00,15,5,21,0.83
2014-1-7,14.9,7.3,1.9,-10.3,-16.4,-21.1,32,32,31,0.00,0.00,18,7,21,0.00
2014-1-8,27.0,15.5,6.4,-4.2,-10.6,-17.1,34,30,21,0.00,0.00,9,3,13,0.00
2014-1-9,42.8,25.8,16.7,5.8,1.9,-4.9,55,37,18,0.00,0.00,7,1,12,0.00
2014-1-10,34.9,30.7,23.4,30.8,19.3,5.6,85,63,46,0.00,0.00,0,0,4,0.12
2014-1-11,59.4,47.3,34.9,58.8,45.7,30.8,98,94,85,0.00,0.00,8,2,13,0.67
2014-1-12,50.5,42.4,35.8,43.2,20.4,14.4,76,42,30,0.00,0.00,14,6,25,0.00
2014-1-13,53.8,40.2,30.0,29.2,22.7,17.7,69,50,35,0.00,0.00,5,2,7,0.00
2014-1-14,45.5,44.0,40.5,42.8,36.0,25.1,92,75,46,0.00,0.00,4,0,6,0.39
2014-1-15,51.6,38.1,32.0,35.5,31.5,29.1,89,79,42,0.00,0.00,4,0,5,0.00
2014-4-2,47.3,46.4,45.3,35.3,34.7,34.4,66,64,63,0.00,0.00,0,0,0,0.00
2014-4-3,71.2,54.3,43.2,37.0,20.5,8.8,76,34,12,0.00,0.00,6,2,11,0.04
2014-4-4,47.7,42.8,39.2,38.6,33.1,26.0,85,69,51,0.00,0.00,8,3,12,0.16
2014-4-5,56.1,45.1,38.5,38.3,25.2,11.8,89,52,22,0.00,0.00,16,4,25,0.00
2014-4-6,70.9,48.1,33.1,21.3,13.0,7.1,44,27,12,0.00,0.00,8,3,14,0.00
2014-4-7,53.1,45.8,38.8,43.9,26.4,7.7,91,51,16,0.00,0.00,8,2,11,0.28
2014-4-8,63.7,53.5,46.6,51.6,35.3,19.8,93,58,25,0.00,0.00,13,4,23,0.12
2014-4-9,65.5,51.8,41.0,26.6,16.9,2.6,55,28,13,0.00,0.00,15,4,17,0.00
2014-4-10,67.1,52.2,34.9,21.5,12.8,-0.2,39,21,15,0.00,0.00,9,4,13,0.00
2014-4-11,73.4,59.0,50.9,46.5,29.9,18.8,72,35,19,0.00,0.00,15,4,17,0.00
2014-4-12,78.4,59.8,46.2,46.0,30.3,16.5,82,42,13,0.00,0.00,6,2,13,0.00
2014-4-13,81.1,64.0,50.9,43.1,32.1,19.5,52,32,17,0.00,0.00,11,4,15,0.00
2014-4-14,78.3,68.0,60.6,51.9,43.4,32.6,73,44,21,0.00,0.00,12,6,17,0.00
2014-4-15,64.9,56.4,34.9,62.9,49.5,28.1,98,79,51,0.00,0.00,15,5,17,1.06
2014-4-16,58.5,40.5,29.8,28.5,10.9,2.7,79,33,14,0.00,0.00,17,6,23,0.04
2014-4-17,56.1,42.6,33.3,24.0,12.5,6.9,55,31,16,0.00,0.00,9,3,12,0.00
2014-4-18,53.1,43.3,33.8,25.1,19.5,13.0,64,41,21,0.00,0.00,6,2,8,0.00
2014-4-19,74.1,55.2,38.3,30.7,20.0,7.0,69,31,12,0.00,0.00,13,4,15,0.00
2014-4-20,64.8,52.9,43.2,17.8,15.0,9.9,35,23,13,0.00,0.00,8,3,10,0.00
2014-4-21,74.1,54.7,35.8,31.5,19.8,11.1,53,30,12,0.00,0.00,8,2,11,0.00
2014-4-22,72.0,58.5,47.7,43.6,36.8,29.6,70,47,22,0.00,0.00,8,2,15,0.00
2014-4-23,62.1,51.8,42.8,43.3,26.3,18.8,61,38,24,0.00,0.00,15,6,22,0.00
2014-4-24,66.9,51.1,39.6,20.9,11.0,4.0,42,22,12,0.00,0.00,17,6,21,0.00
2014-4-25,67.5,52.0,39.4,35.0,13.3,3.6,59,23,12,0.00,0.00,9,2,17,0.00
2014-4-26,70.0,54.0,46.6,48.1,38.1,25.8,84,60,20,0.00,0.00,9,2,13,1.06
2014-4-27,61.2,51.1,44.4,30.4,25.2,20.7,53,38,24,0.00,0.00,11,4,16,0.00
2014-4-28,70.2,52.7,41.0,31.5,24.5,14.5,66,38,14,0.00,0.00,9,1,11,0.00
2014-4-29,54.7,47.0,42.1,36.6,31.8,27.0,78,57,37,0.00,0.00,11,4,17,0.08
2014-4-30,48.2,43.8,40.6,46.8,40.3,33.7,95,87,72,0.00,0.00,6,3,11,2.60
2014-5-1,78.1,62.7,48.0,58.7,43.8,22.8,98,62,13,0.00,0.00,10,2,15,0.39
2014-5-2,66.9,60.8,54.1,44.9,27.8,15.0,69,33,15,0.00,0.00,11,3,17,0.00
2014-5-3,69.1,58.5,48.7,45.5,28.5,17.4,75,35,15,0.00,0.00,9,2,17,0.00
2014-5-4,65.5,56.8,50.7,44.8,25.8,11.4,73,34,16,0.00,0.00,18,5,21,0.04
2014-5-5,72.7,59.2,48.0,26.6,19.1,7.7,43,23,12,0.00,0.00,13,5,16,0.00
2014-5-6,72.5,59.3,49.6,24.4,17.9,7.6,36,21,14,0.00,0.00,8,2,20,0.00
2014-5-7,74.3,59.8,44.6,28.6,20.0,15.8,40,23,13,0.00,0.00,5,2,10,0.00
2014-5-8,58.8,56.1,52.5,53.0,48.3,28.9,89,77,33,0.00,0.00,4,0,6,0.35
2014-5-9,61.3,58.6,55.0,60.3,56.3,51.5,97,92,86,0.00,0.00,4,0,8,0.04
2014-5-10,81.5,67.1,60.1,64.2,53.7,44.8,98,67,28,0.00,0.00,8,2,13,0.35
2014-5-11,83.3,69.4,57.7,58.3,29.9,17.4,88,28,11,0.00,0.00,9,3,13,0.04
2014-5-12,85.1,70.7,56.8,46.7,37.8,28.5,53,33,13,0.00,0.00,8,1,8,0.00
2014-5-13,73.6,65.8,55.4,52.6,38.0,26.0,70,40,19,0.00,0.00,7,2,11,0.00
2014-5-14,73.6,59.9,51.8,56.4,41.7,34.5,87,53,32,0.00,0.00,6,2,9,0.00
2014-5-15,68.5,63.6,59.7,65.4,61.3,56.5,98,92,83,0.00,0.00,8,1,11,0.00
2014-5-16,66.6,64.4,57.6,66.0,63.1,54.3,98,96,84,0.00,0.00,9,3,14,0.98
2014-5-17,70.0,59.7,51.1,53.8,35.9,20.2,88,48,17,0.00,0.00,8,2,12,0.00
2014-5-18,66.6,57.2,47.5,37.5,28.3,20.0,67,36,17,0.00,0.00,6,2,12,0.00
2014-5-19,71.6,59.8,45.1,31.9,23.5,18.0,48,27,14,0.00,0.00,8,3,15,0.00
2014-5-20,78.8,65.8,51.3,35.2,26.2,18.5,54,26,12,0.00,0.00,6,2,13,0.00
2014-5-21,73.6,67.5,60.6,49.4,38.8,29.0,59,36,25,0.00,0.00,5,1,9,0.00
2014-5-22,65.5,62.1,58.8,60.5,56.8,49.1,95,83,58,0.00,0.00,5,1,8,0.24
2014-5-23,72.3,62.2,56.5,58.3,51.9,40.7,95,73,32,0.00,0.00,8,1,11,1.18
2014-5-24,70.9,62.0,56.1,57.1,51.9,39.0,93,73,32,0.00,0.00,6,1,7,0.47
2014-5-25,81.1,66.5,52.0,54.1,38.7,21.9,95,48,12,0.00,0.00,6,1,9,0.00
2014-5-26,86.0,73.1,59.5,46.4,34.9,21.9,61,29,11,0.00,0.00,9,2,11,0.00
2014-5-27,86.7,75.7,65.5,54.4,45.1,33.0,51,35,16,0.00,0.00,6,2,15,0.00
2014-5-28,71.6,59.9,54.5,56.4,47.4,38.2,80,64,51,0.00,0.00,4,1,6,0.00
2014-5-29,68.2,58.8,50.9,38.2,33.3,26.4,57,40,22,0.00,0.00,5,1,8,0.00
2014-5-30,77.7,64.3,53.2,48.3,36.4,25.0,58,38,15,0.00,0.00,6,1,10,0.00
2014-5-31,72.5,63.5,55.2,44.9,36.5,28.3,61,39,21,0.00,0.00,11,2,14,0.00
2014-6-1,78.1,65.1,52.9,42.8,30.9,18.0,65,34,13,0.00,0.00,6,1,9,0.00
2014-6-2,82.4,69.4,54.9,44.0,36.7,26.1,50,32,21,0.00,0.00,6,2,9,0.00
2014-6-3,88.5,73.1,62.6,67.5,53.3,43.3,89,54,22,0.00,0.00,6,1,9,0.24
2014-6-4,81.5,72.3,64.4,65.5,50.8,34.9,94,54,21,0.00,0.00,4,1,8,0.00
2014-6-5,77.2,66.8,61.3,61.0,50.3,34.5,92,60,22,0.00,0.00,6,2,11,0.79
2014-6-6,76.6,66.7,57.6,43.0,38.5,33.6,53,37,22,0.00,0.00,6,2,10,0.00
2014-6-7,83.1,69.2,59.2,48.0,42.0,35.5,57,40,19,0.00,0.00,4,1,6,0.00
2014-6-8,84.0,71.5,59.5,54.4,44.7,29.6,73,43,14,0.00,0.00,5,1,8,0.00
2014-6-9,70.5,65.4,62.8,63.2,57.8,40.4,93,80,34,0.00,0.00,3,0,6,0.63
2014-6-10,76.3,68.8,63.7,66.6,61.7,57.3,96,80,53,0.00,0.00,3,0,5,0.00
2014-6-11,68.9,64.8,60.6,65.5,55.7,48.5,90,74,54,0.00,0.00,6,1,8,0.08
2014-6-12,66.9,63.1,59.5,65.6,59.9,50.5,96,89,66,0.00,0.00,6,0,6,0.08
2014-6-13,77.7,68.4,65.5,68.0,65.1,59.9,98,90,55,0.00,0.00,3,0,13,1.10
2014-6-14,72.0,66.2,58.5,66.2,48.7,35.0,98,58,29,0.00,0.00,9,3,15,0.00
2014-6-15,79.2,68.3,57.6,46.0,41.5,35.7,63,40,22,0.00,0.00,6,3,11,0.00
2014-6-16,82.8,71.2,58.1,53.7,46.9,40.2,80,46,23,0.00,0.00,6,1,8,0.00
2014-6-17,89.6,78.0,65.5,58.0,52.1,42.1,74,44,20,0.00,0.00,6,1,9,0.00
2014-6-18,87.3,80.3,72.7,59.0,50.1,41.3,54,36,21,0.00,0.00,13,3,15,0.00
2014-6-19,78.3,70.9,66.0,64.9,58.4,44.1,86,66,44,0.00,0.00,5,0,8,0.08
2014-6-20,79.3,69.1,58.8,43.0,35.2,23.3,53,31,13,0.00,0.00,6,1,9,0.00
2014-6-21,79.2,68.3,57.9,41.2,35.8,30.0,48,32,18,0.00,0.00,5,1,6,0.00
2014-6-22,80.2,69.2,59.7,49.5,41.7,34.4,66,40,20,0.00,0.00,5,1,7,0.00
2014-6-23,82.8,70.5,58.5,51.1,45.5,38.4,69,43,21,0.00,0.00,5,1,9,0.00
2014-6-24,83.1,72.2,62.1,52.1,46.4,40.5,66,41,23,0.00,0.00,6,2,10,0.00
2014-6-25,85.1,75.6,66.9,67.3,58.9,43.6,88,58,37,0.00,0.00,8,1,10,0.24
2014-6-26,84.0,75.5,69.1,69.6,59.9,50.1,97,63,32,0.00,0.00,6,2,9,0.20
2014-6-27,83.7,74.8,67.5,61.2,49.2,35.3,77,45,19,0.00,0.00,4,1,6,0.00
2014-6-28,85.1,74.1,62.4,53.4,44.5,31.6,69,39,16,0.00,0.00,5,0,6,0.00
2014-6-29,85.5,73.8,62.2,56.3,48.0,38.5,75,43,24,0.00,0.00,6,1,9,0.00
2014-6-30,83.8,74.5,62.8,59.0,49.5,44.1,63,43,26,0.00,0.00,6,1,10,0.00
2014-7-1,90.1,80.0,68.4,61.9,57.4,53.0,76,49,29,0.00,0.00,9,2,9,0.00
2014-7-2,90.5,79.2,72.3,70.9,64.0,57.3,94,63,38,0.00,0.00,5,2,8,0.00
2014-7-3,88.5,76.3,69.1,71.6,66.2,57.2,98,75,38,29.41,0.00,10,1,12,0.31
2014-7-4,71.1,67.9,64.2,67.8,57.4,40.9,97,72,36,29.44,29.32,8,2,12,0.00
2014-7-5,81.7,70.0,60.8,41.7,37.1,26.9,47,32,14,29.56,29.44,8,3,11,0.00
2014-7-6,84.4,72.8,60.3,48.8,41.7,31.9,66,36,16,29.53,29.32,6,2,11,0.00
2014-7-7,88.9,78.3,68.9,57.2,51.5,45.8,63,42,25,29.35,29.15,6,2,14,0.00
2014-7-8,90.1,78.0,68.5,69.6,59.7,51.0,93,60,28,29.29,29.26,12,2,17,0.28
2014-7-9,86.2,74.8,68.5,64.7,57.5,44.1,84,59,24,0.00,0.00,5,1,17,0.08
2014-7-10,83.3,72.6,65.7,64.1,57.3,47.5,88,63,30,0.00,0.00,4,0,5,0.16
2014-7-11,86.5,73.9,64.0,64.3,51.1,38.1,90,52,19,0.00,0.00,6,1,6,0.00
2014-7-12,86.7,74.9,65.1,62.6,52.7,45.3,82,50,27,0.00,0.00,6,1,8,0.00
2014-7-13,83.7,75.5,69.8,67.6,60.2,48.2,78,60,42,0.00,0.00,12,2,13,0.04
2014-7-14,83.5,74.5,70.2,70.7,66.3,58.1,95,78,44,0.00,0.00,6,1,13,1.10
2014-7-15,82.0,75.1,71.4,73.0,68.3,60.3,97,81,48,0.00,0.00,5,0,7,0.31
2014-7-16,80.2,72.9,65.8,71.0,54.9,39.0,97,59,24,0.00,0.00,6,1,11,0.79
2014-7-17,81.0,71.5,62.6,55.7,45.5,35.0,72,43,20,0.00,0.00,6,1,9,0.00
2014-7-18,80.8,70.7,60.4,51.1,42.9,30.3,68,41,17,0.00,0.00,4,1,8,0.00
2014-7-19,78.4,69.6,62.6,52.8,47.6,42.5,65,47,29,0.00,0.00,4,0,6,0.00
2014-7-20,80.1,70.9,64.2,55.2,48.2,40.7,72,47,28,0.00,0.00,6,1,8,0.00
2014-7-21,85.1,72.4,61.3,58.2,50.2,42.6,77,49,24,0.00,0.00,4,1,6,0.00
2014-7-22,86.7,76.4,66.2,62.8,57.1,51.8,84,55,31,0.00,0.00,6,1,11,0.00
2014-7-23,89.8,78.8,70.0,70.2,59.6,55.0,85,54,31,0.00,0.00,6,1,17,0.08
2014-7-24,82.9,73.3,68.0,66.0,52.1,40.3,81,51,24,0.00,0.00,5,2,8,0.04
2014-7-25,82.0,72.1,61.0,49.3,41.9,35.7,57,36,20,0.00,0.00,4,1,6,0.00
2014-7-26,81.5,71.9,64.4,61.5,54.3,49.2,78,56,35,0.00,0.00,5,1,8,0.00
2014-7-27,86.5,76.6,69.4,68.8,59.6,49.0,92,61,28,0.00,0.00,6,1,10,0.04
2014-7-28,80.2,72.7,65.5,69.9,57.4,45.4,93,63,30,0.00,0.00,8,2,13,0.35
2014-7-29,74.5,67.3,60.4,48.2,41.7,33.0,63,41,22,0.00,0.00,7,2,13,0.00
2014-7-30,77.7,68.1,58.6,49.8,42.0,32.3,72,42,20,0.00,0.00,5,1,8,0.00
2014-7-31,82.9,70.8,60.4,58.0,48.0,38.7,80,48,21,0.00,0.00,6,1,10,0.00
2014-8-1,83.1,70.0,64.2,65.9,59.0,49.2,91,71,32,0.00,0.00,5,1,8,1.89
2014-8-2,77.4,69.4,64.6,65.4,59.2,48.2,93,73,37,0.00,0.00,6,1,6,0.00
2014-8-3,77.5,69.4,64.9,63.4,57.3,49.9,89,68,39,0.00,0.00,4,0,6,0.00
2014-8-4,84.2,74.0,67.5,63.7,55.3,47.0,84,56,29,0.00,0.00,8,1,8,0.00
2014-8-5,87.4,75.4,65.3,61.3,53.4,40.9,82,51,20,0.00,0.00,5,1,8,0.00
2014-8-6,83.1,73.5,67.1,59.8,50.4,40.4,77,47,23,0.00,0.00,6,1,11,0.00
2014-8-7,81.5,71.6,63.3,48.2,40.6,31.4,51,35,17,0.00,0.00,8,2,11,0.00
2014-8-8,81.5,71.5,61.5,47.3,41.9,35.6,57,37,20,0.00,0.00,4,1,8,0.00
2014-8-9,85.1,74.1,63.0,49.6,41.0,27.9,59,34,13,0.00,0.00,5,1,6,0.00
2014-8-10,88.3,74.7,61.2,53.6,44.1,35.6,66,38,16,0.00,0.00,4,0,6,0.00
2014-8-11,86.2,74.1,64.0,56.7,46.4,28.7,69,42,13,0.00,0.00,5,1,9,0.00
2014-8-12,75.9,71.0,66.7,64.4,59.0,53.8,82,67,47,0.00,0.00,8,2,11,0.00
2014-8-13,82.8,70.9,66.6,67.2,61.2,48.9,93,74,31,0.00,0.00,8,1,15,0.31
2014-8-14,77.0,67.6,59.7,54.3,40.5,32.2,68,40,21,0.00,0.00,9,2,12,0.00
2014-8-15,70.7,63.8,56.7,46.1,39.4,32.3,60,42,25,0.00,0.00,8,2,11,0.00
2014-8-16,78.3,66.9,56.8,48.6,39.8,25.6,74,41,15,0.00,0.00,6,1,11,0.00
2014-8-17,81.3,70.0,62.4,57.2,45.2,38.4,77,43,22,0.00,0.00,6,2,9,0.00
2014-8-18,81.3,69.8,59.5,49.4,41.5,34.4,68,39,19,0.00,0.00,10,2,10,0.00
2014-8-19,84.7,71.8,58.6,54.7,44.1,36.0,63,40,19,0.00,0.00,5,1,8,0.00
2014-8-20,84.2,74.7,66.0,61.0,50.7,36.6,80,47,23,0.00,0.00,6,1,7,0.00
2014-8-21,80.6,72.4,64.9,65.1,52.4,42.0,89,53,32,0.00,0.00,5,1,9,0.20
2014-8-22,74.1,68.4,66.0,65.0,56.9,47.5,91,69,44,0.00,0.00,3,0,8,0.04
2014-8-23,73.9,67.9,64.0,59.6,53.6,45.2,82,62,36,0.00,0.00,4,0,8,0.00
2014-8-24,81.7,69.5,60.3,57.7,50.8,44.1,82,56,30,0.00,0.00,6,1,10,0.00
2014-8-25,88.2,73.4,60.8,59.8,49.3,37.7,85,51,18,0.00,0.00,5,1,6,0.00
2014-8-26,88.3,74.4,64.8,58.3,50.3,38.9,72,47,18,0.00,0.00,5,1,8,0.00
2014-8-27,90.0,77.2,64.9,63.0,54.6,47.9,85,50,24,0.00,0.00,5,1,10,0.00
2014-8-28,79.9,72.5,63.9,63.6,39.5,31.5,67,33,20,0.00,0.00,6,2,11,0.00
2014-8-29,81.5,71.0,60.3,44.0,37.5,30.3,49,32,17,0.00,0.00,5,1,6,0.00
2014-8-30,78.4,68.9,57.2,56.0,48.9,40.8,74,51,27,0.00,0.00,5,1,8,0.00
2014-8-31,87.1,74.8,69.6,70.0,59.5,50.7,86,60,34,0.00,0.00,8,1,12,0.00
2014-9-1,87.6,78.6,71.6,70.2,61.8,52.1,91,61,31,0.00,0.00,6,1,9,0.00
2014-9-2,90.9,80.6,71.1,71.2,58.4,45.9,90,53,22,0.00,0.00,9,2,12,0.00
2014-9-3,88.9,76.1,68.0,56.4,43.6,28.3,56,35,13,0.00,0.00,8,2,11,0.00
2014-9-4,88.5,75.4,61.3,51.1,44.1,30.0,66,38,13,0.00,0.00,5,1,10,0.00
2014-9-5,88.5,76.8,66.4,68.7,58.6,49.4,82,56,31,0.00,0.00,6,1,11,0.00
2014-9-6,91.8,79.5,66.2,71.1,60.8,47.2,92,59,22,0.00,0.00,6,2,11,0.16
2014-9-7,86.9,71.6,62.6,59.1,44.8,27.7,83,45,13,0.00,0.00,7,1,8,0.00
2014-9-8,79.2,68.1,59.9,48.5,41.3,33.3,54,39,20,0.00,0.00,8,1,10,0.00
2014-9-9,74.1,66.4,59.5,51.3,47.1,42.3,69,51,34,0.00,0.00,6,1,8,0.00
2014-9-10,79.9,69.4,60.3,55.2,46.7,37.8,66,47,23,0.00,0.00,5,1,8,0.00
2014-9-11,82.8,71.7,66.0,60.9,56.5,41.3,82,60,37,0.00,0.00,6,2,12,0.00
2014-9-12,81.3,67.7,59.0,43.7,38.1,33.0,52,36,19,0.00,0.00,6,2,12,0.00
2014-9-13,65.1,60.5,55.9,57.6,46.3,36.6,87,61,43,0.00,0.00,4,1,8,0.16
2014-9-14,71.8,59.6,50.2,49.8,37.0,25.7,81,47,19,0.00,0.00,6,1,9,0.00
2014-9-15,73.2,60.8,49.8,40.2,33.4,22.9,62,40,16,0.00,0.00,6,1,8,0.00
2014-9-16,71.6,61.6,55.0,57.9,43.9,37.6,89,55,32,0.00,0.00,8,1,8,0.28
2014-9-17,75.6,62.0,52.0,44.2,33.7,19.6,71,41,13,0.00,0.00,7,1,9,0.00
2014-9-18,77.2,64.4,51.3,42.0,33.4,19.7,66,37,13,0.00,0.00,8,1,8,0.00
2014-9-19,69.8,60.3,50.9,41.2,33.2,25.0,56,38,22,0.00,0.00,8,2,8,0.00
2014-9-20,76.1,65.2,55.0,57.7,44.9,36.9,76,49,28,0.00,0.00,6,2,11,0.00
2014-9-21,77.7,69.1,64.4,64.6,59.6,52.9,91,74,43,0.00,0.00,4,0,6,0.04
2014-9-22,69.1,62.9,53.8,59.5,38.0,27.1,81,43,22,0.00,0.00,12,4,17,0.00
2014-9-23,78.1,61.3,48.4,38.0,29.5,19.6,56,33,13,0.00,0.00,5,1,8,0.00
2014-9-24,73.8,62.4,52.9,47.4,40.0,30.5,73,47,22,0.00,0.00,8,1,10,0.00
2014-9-25,68.2,60.3,56.8,53.7,48.0,43.0,80,64,45,0.00,0.00,5,2,6,0.24
2014-9-26,81.9,65.8,54.7,49.9,41.6,25.6,75,47,15,0.00,0.00,6,2,11,0.00
2014-9-27,87.6,69.4,57.4,51.9,42.6,27.9,75,44,13,0.00,0.00,6,1,6,0.00
2014-9-28,88.0,71.0,58.6,55.6,45.5,34.3,78,46,16,0.00,0.00,5,0,8,0.00
2014-9-29,76.3,68.9,62.6,55.2,49.6,42.8,70,52,32,0.00,0.00,3,0,5,0.00
2014-9-30,74.1,66.5,62.1,59.1,52.3,46.7,82,62,40,0.00,0.00,6,1,8,0.00
2014-10-1,65.1,62.3,59.0,53.9,51.6,48.4,78,68,59,0.00,0.00,6,1,7,0.00
2014-10-2,69.6,63.5,59.4,54.0,48.1,41.6,80,59,37,0.00,0.00,5,1,8,0.00
2014-10-3,75.6,63.4,54.1,52.3,42.5,29.0,77,52,18,0.00,0.00,6,1,10,0.00
2014-10-4,66.4,60.5,50.9,64.4,49.0,25.6,98,69,36,0.00,0.00,11,2,13,0.67
2014-10-5,63.9,51.5,42.8,28.5,23.0,14.2,48,34,16,0.00,0.00,9,2,11,0.00
2014-10-6,73.2,56.6,42.6,42.2,33.0,18.6,66,45,14,0.00,0.00,8,2,11,0.00
2014-10-7,75.6,64.1,57.7,55.6,43.1,31.6,78,49,21,0.00,0.00,6,1,13,0.00
2014-10-8,72.1,64.0,59.0,60.8,40.8,23.2,95,50,16,0.00,0.00,15,3,17,0.39
2014-10-9,67.5,58.1,50.2,35.3,26.7,16.5,55,32,15,0.00,0.00,12,2,15,0.00
2014-10-10,62.6,55.7,48.9,35.5,28.5,24.5,50,36,24,0.00,0.00,4,0,6,0.00
2014-10-11,54.5,51.6,47.5,47.5,43.3,35.4,85,74,50,0.00,0.00,4,0,5,0.24
2014-10-12,70.9,53.8,42.8,44.6,30.7,16.1,84,47,14,0.00,0.00,4,0,8,0.00
2014-10-13,62.6,56.1,46.8,58.0,43.1,31.5,90,63,46,0.00,0.00,2,0,6,0.04
2014-10-14,77.2,67.8,61.0,65.1,57.0,50.0,98,72,40,0.00,0.00,6,1,10,0.00
2014-10-15,77.9,70.3,67.5,67.7,62.0,54.5,97,77,45,0.00,0.00,10,2,13,0.51
2014-10-16,74.3,66.3,57.7,67.7,55.3,39.6,98,72,31,0.00,0.00,6,1,11,0.83
2014-10-17,73.6,63.3,56.7,52.6,42.5,32.0,83,51,22,0.00,0.00,11,2,11,0.00
2014-10-18,65.8,57.9,54.3,50.6,42.6,30.5,82,59,34,0.00,0.00,6,1,13,0.00
2014-10-19,57.9,50.1,42.3,33.7,21.5,9.6,46,34,17,0.00,0.00,12,4,16,0.00
2014-10-20,61.3,49.0,38.5,32.0,23.7,16.8,53,38,24,0.00,0.00,6,1,9,0.00
2014-10-21,65.5,55.3,49.3,51.2,42.5,32.2,85,63,38,0.00,0.00,5,0,8,0.12
2014-10-22,54.7,53.1,49.6,51.8,47.1,40.8,90,81,61,0.00,0.00,13,4,17,0.31
2014-10-23,52.7,50.9,49.6,46.9,42.7,34.5,86,74,54,0.00,0.00,12,5,16,0.20
2014-10-24,63.7,54.8,49.3,36.4,32.7,25.7,60,45,27,0.00,0.00,8,3,12,0.00
2014-10-25,73.6,57.3,46.6,33.4,28.2,21.9,51,34,16,0.00,0.00,12,2,12,0.00
2014-10-26,61.0,55.1,50.0,43.7,27.1,20.0,69,35,22,0.00,0.00,10,4,17,0.00
2014-10-27,70.7,55.9,46.9,28.3,23.5,15.3,47,30,14,0.00,0.00,6,2,11,0.00
2014-10-28,72.3,57.3,46.0,44.9,35.7,27.8,62,46,23,0.00,0.00,3,0,6,0.00
2014-10-29,71.8,56.9,48.7,52.6,44.2,24.6,85,67,20,0.00,0.00,8,1,13,0.04
2014-10-30,61.0,49.0,42.3,43.9,32.0,21.8,86,57,24,0.00,0.00,6,1,12,0.00
2014-10-31,54.5,47.4,39.9,35.1,27.2,21.8,64,47,30,0.00,0.00,4,1,8,0.00
2014-11-1,48.9,44.9,41.2,36.8,29.5,22.5,72,56,36,0.00,0.00,13,5,14,0.12
2014-11-2,52.7,42.4,38.5,28.5,14.6,1.0,60,35,17,0.00,0.00,13,6,20,0.00
2014-11-3,64.4,49.3,38.3,16.8,11.0,4.5,37,23,13,0.00,0.00,19,5,21,0.00
2014-11-4,76.5,58.7,48.2,22.9,13.6,4.0,27,17,11,0.00,0.00,5,2,11,0.00
2014-11-5,61.9,55.7,49.8,29.6,22.7,9.9,38,29,14,0.00,0.00,8,1,13,0.00
2014-11-6,49.8,48.5,46.4,46.2,39.2,23.9,89,73,37,0.00,0.00,5,0,7,0.28
2014-11-7,54.1,44.9,37.6,44.0,26.4,15.4,90,50,28,0.00,0.00,14,4,17,0.04
2014-11-8,52.9,42.2,34.5,20.0,14.4,7.5,44,33,18,0.00,0.00,8,2,11,0.00
2014-11-9,62.6,48.3,40.6,25.9,20.3,12.6,50,35,16,0.00,0.00,9,1,12,0.00
2014-11-10,69.4,48.6,35.8,27.4,22.6,14.4,64,40,15,0.00,0.00,5,1,7,0.00
2014-11-11,65.1,52.3,42.8,48.6,38.4,26.7,85,60,39,0.00,0.00,8,0,12,0.00
2014-11-12,63.0,54.2,44.1,56.4,38.7,18.3,94,61,29,0.00,0.00,6,2,15,0.00
2014-11-13,54.1,41.8,35.6,28.8,18.7,10.5,76,42,20,0.00,40.00,4,0,9,0.08
2014-11-14,50.0,37.6,31.1,31.3,13.5,-0.8,80,42,16,0.00,0.00,9,3,14,0.08
2014-11-15,51.1,35.7,28.6,13.2,8.3,-0.6,49,34,16,0.00,0.00,7,1,11,0.00
2014-11-16,41.4,36.0,28.6,22.6,14.8,9.2,53,42,31,0.00,0.00,4,0,6,0.00
2014-11-17,46.0,41.2,37.4,44.0,34.3,22.6,94,77,47,0.00,0.00,10,1,13,1.06
2014-11-18,42.8,29.2,21.7,24.3,-2.3,-11.3,48,26,18,0.00,0.00,13,6,21,0.04
2014-11-19,38.1,27.3,20.1,2.6,-5.7,-12.2,32,23,19,0.00,0.00,8,3,13,0.00
2014-11-20,47.1,34.6,26.1,9.7,3.0,-7.3,43,27,18,0.00,0.00,14,4,18,0.00
2014-11-21,41.7,30.7,24.8,1.3,-3.0,-8.4,34,23,18,0.00,0.00,10,4,15,0.00
2014-11-22,43.7,34.2,21.9,5.5,2.2,-1.3,43,27,18,0.00,0.00,6,2,11,0.00
2014-11-23,61.7,48.0,39.9,22.5,11.2,5.4,37,23,14,0.00,0.00,5,1,7,0.00
2014-11-24,72.1,62.0,45.7,61.1,47.8,24.0,98,63,34,0.00,0.00,12,5,18,0.67
2014-11-25,62.6,53.8,44.1,50.2,21.6,9.6,66,31,18,0.00,0.00,8,3,12,0.00
2014-11-26,44.8,38.1,34.2,30.4,25.9,19.7,84,64,37,0.00,0.00,8,2,12,0.08
2014-11-27,38.7,35.3,32.0,29.8,24.9,16.6,81,67,50,0.00,0.00,6,1,8,0.16
2014-11-28,40.8,31.0,23.2,16.6,9.7,1.2,57,42,24,0.00,0.00,10,2,15,0.00
2014-11-29,33.8,29.3,21.2,14.7,8.3,3.8,54,41,30,0.00,0.00,4,1,6,0.00
2014-11-30,45.7,40.3,33.6,26.5,22.1,14.7,56,48,39,0.00,0.00,8,0,9,0.28
2014-12-1,64.4,47.9,38.1,36.1,28.2,11.5,60,47,33,0.00,0.00,9,4,17,0.16
2014-12-2,39.0,36.3,33.1,35.3,18.6,5.7,87,53,31,0.00,0.00,8,3,11,0.20
2014-12-3,43.7,40.6,38.1,40.0,32.9,13.5,94,76,36,0.00,0.00,8,2,13,0.04
2014-12-4,53.4,38.9,32.4,14.8,10.6,4.0,42,32,18,0.00,0.00,8,3,14,0.00
2014-12-5,39.4,34.8,29.3,35.7,18.1,10.2,87,52,39,0.00,0.00,6,2,8,0.39
2014-12-6,45.3,41.6,38.7,41.7,37.4,33.2,87,85,79,0.00,0.00,8,1,13,0.87
2014-12-7,47.7,36.8,27.1,33.7,9.9,-5.8,81,36,17,0.00,0.00,15,8,24,0.00
2014-12-8,32.7,27.7,21.7,17.7,3.9,-10.8,54,37,21,0.00,0.00,8,4,11,0.00
2014-12-9,41.2,37.5,32.5,35.7,31.2,17.3,88,78,53,0.00,0.00,15,6,23,0.31
2014-12-10,39.4,35.4,32.2,33.0,23.0,13.5,80,61,45,0.00,0.00,13,5,17,0.08
2014-12-11,38.7,32.5,29.3,19.5,12.1,6.1,66,43,26,0.00,0.00,10,4,15,0.00
2014-12-12,42.6,33.9,30.4,16.6,12.3,10.0,50,41,29,0.00,0.00,15,5,17,0.00
2014-12-13,50.5,37.7,33.3,21.2,16.9,10.8,52,44,21,0.00,0.00,13,4,15,0.00
2014-12-14,52.0,40.1,36.9,21.8,20.7,17.4,53,46,27,0.00,0.00,11,4,15,0.00
2014-12-15,59.9,41.7,34.0,23.5,20.1,16.1,60,44,19,0.00,0.00,5,1,8,0.00
2014-12-16,46.9,39.0,32.2,39.1,28.6,20.7,85,67,48,0.00,0.00,4,0,6,0.20
2014-12-17,57.4,45.0,39.7,40.7,31.8,16.8,90,63,30,0.00,0.00,8,3,15,0.00
2014-12-18,43.2,37.5,35.6,17.0,14.2,10.8,45,38,29,0.00,0.00,13,6,22,0.00
2014-12-19,42.8,34.9,31.8,16.3,11.8,7.3,45,38,23,0.00,0.00,13,5,17,0.00
2014-12-20,34.5,32.4,31.1,14.2,11.6,9.3,47,42,36,0.00,0.00,8,2,9,0.00
2014-12-21,36.9,33.2,30.9,19.6,17.2,13.7,61,52,43,0.00,0.00,6,2,8,0.00
2014-12-22,43.0,38.3,34.5,40.0,26.9,19.6,89,64,53,0.00,0.00,4,1,8,0.04
2014-12-23,46.9,44.8,43.0,43.0,41.5,40.0,91,88,85,0.00,0.00,5,2,8,0.16
2014-12-24,55.4,47.4,45.0,54.8,45.0,41.8,98,92,88,0.00,0.00,4,1,8,0.55
2014-12-25,59.9,49.9,42.4,59.3,26.4,13.8,98,44,21,0.00,0.00,15,6,24,0.04
2014-12-26,58.5,44.6,34.0,20.9,16.6,10.3,58,35,17,0.00,0.00,9,2,11,0.00